sat.trackr.live / text

‹ back to catalog

STARLINK-37160

NORAD 68282 · 2026-055W

PAYLOAD ACTIVE UNKNOWN

§ Identity

Operator
Country
US
Launch date
2026-03-19
Launch site
AFETR
Launch vehicle
Mass (kg)
RCS (m²)

Purposes: comms

External: N2YO · Heavens-Above · Gunter

§ Orbital elements

Epoch: 2026-09-20T01:07:34.896288Z

Period
93.85 min
Inclination
53.1579°
Eccentricity
0.0001800
Mean motion
15.34399244 rev/d
Perigee alt
461.5 km
Apogee alt
463.9 km
Semi-major
6,840.8 km
B*
5.4353e-4
RAAN
131.8108°
Arg perigee
60.4722°
Mean anomaly
299.6459°
Rev number
2,975

§ Raw data

STARLINK-371601 68282U 26055W   26263.04693167  .00018031  00000+0  54353-3 0  99942 68282  53.1579 131.8108 0001800  60.4722 299.6459 15.34399244 29751

JSON: /api/v1/satellites/68282 · /tle

For live sub-satellite position, see the globe view (requires WebGL).

§ Visibility from observer

Set your observer location to see the next 7 days of passes ≥ 10°. The values pass through the URL so the page stays shareable.

No JS? Fill the form by hand. The geolocation button needs JavaScript.